Location: M.A.R.S.Observatory
(35.4031°N, 81.5481°W)
Time: 08:04:42
(UTC-04:00)

SL-8 R/B - Visible Passes

Search period start: 31 October 2014 00:00
Search period end: 09 November 2014 23:00
Orbit: 659 x 670 km, 48.4° (Epoch: 31 October)

Date Brightness Start Highest point End Pass type
(mag) Time Alt. Az. Time Alt. Az. Time Alt. Az.
31 Oct 4.1 19:02:43 10° SSW 19:07:17 49° SE 19:11:53 10° ENE visible
31 Oct 4.9 20:45:36 10° W 20:49:57 35° NNW 20:49:57 35° NNW visible
01 Nov 3.9 19:34:11 10° WSW 19:38:55 68° NW 19:42:27 18° NE visible
01 Nov 6.1 21:18:27 10° WNW 21:20:29 18° NW 21:20:29 18° NW visible
02 Nov 5.0 19:06:32 10° W 19:10:51 33° NNW 19:12:54 24° NNE visible
03 Nov 4.1 17:55:03 10° WSW 17:59:46 63° NW 18:04:31 10° NE visible
03 Nov 5.5 19:39:26 10° WNW 19:43:04 21° NNW 19:43:17 21° N visible
04 Nov 5.1 18:27:28 10° W 18:31:44 31° NNW 18:35:36 12° NE visible
04 Nov 6.3 20:12:21 10° NW 20:13:37 14° NNW 20:13:37 14° NNW visible
05 Nov 5.6 19:00:24 10° WNW 19:03:58 20° NNW 19:05:54 16° NNE visible
06 Nov 5.1 17:48:25 10° W 17:52:36 30° NNW 17:56:49 10° NE visible
06 Nov 5.8 19:33:17 10° NW 19:36:10 17° N 19:36:10 17° N visible
07 Nov 5.6 18:21:21 10° WNW 18:24:51 20° NNW 18:28:22 10° NE visible
07 Nov 6.3 20:05:35 10° NW 20:06:25 13° NNW 20:06:25 13° NNW visible
08 Nov 5.6 18:54:13 10° NW 18:57:17 17° N 18:58:39 15° NNE visible
09 Nov 5.7 19:26:26 10° NW 19:28:55 18° N 19:28:55 18° N visible
